Tracking 29932 objects as of 3-Dec-2024
HD Live streaming from Space Station
objects crossing your sky now

XTAR-EUR

Track XTAR-EUR now!
XTAR-EUR is classified as:


NORAD ID: 28542
Int'l Code: 2005-005A
Perigee: 35,769.5 km
Apogee: 35,819.4 km
Inclination: 2.9 °
Period: 1,436.1 minutes
Semi major axis: 42165 km
RCS: 6.3095 m2 (large)
Launch date: February 12, 2005
Source: United States (US)
Launch site: FRENCH GUIANA (FRGUI)

X-band; designed to be compatible with U.S. and NATO SATCOM systems.
Your satellite tracking list
Your tracking list is empty




NASA's NSSDC Master Catalog

Two Line Element Set (TLE):
1 28542U 05005A   24336.95256033  .00000177  00000-0  00000-0 0  9997
2 28542   2.8808  83.7153 0005923 187.9598 171.5648  1.00269298 72550
Source of the keplerian elements: AFSPC